Location: Unspecified
(0.0000°N, 0.0000°E)
Time: 21:47:36
(UTC+00:00)

Hubble Space Telescope - Pass Details

Date: 02 February 2021
Orbit: 536 x 539 km, 28.5° (Epoch: 25 February)

Event Time Altitude Azimuth Distance (km) Brightness Sun altitude
Rises 19:03:15 0° 295° (WNW) 2,667 5.1 -11.8°
Reaches altitude 10° 19:05:31 10° 292° (WNW) 1,778 4.2 -12.4°
Maximum altitude 19:09:36 63° 210° (SSW) 595 1.2 -13.4°
Drops below altitude 10° 19:13:41 10° 129° (SE) 1,785 3.1 -14.3°
Enters shadow 19:13:55 - 128° (SE) 1,873 3.2 -14.4°
